DMSP 5D-2 F11 DEB

Satellite information

Favourite Embed

Satellite Type and Status

DEBRISIN ORBIT

Key statistics

Satellite DMSP 5D-2 F11 DEB at a glance.

Uptime

12434

Days in orbit

Revolutions

≈ 14.4

Per day

Orbit

SSO

Sun Synchronous Orbit

Inclination

99.0

Latest

Satellite identification and parameters

Extended collection of information and parameters for DMSP 5D-2 F11 DEB.

Object identification

Identified? True

Debris? True

Object name: DMSP 5D-2 F11 DEB

International designator: 1991-082BS

Object number (NORAD): 29071

Object ID (CCSDS): 29071

Country: UNITED STATES OF AMERICA (US)

Current information (Y/N): Y

RCS size: SMALL

Orbital parameters

Period: 100.312 minutes

Inclination: 98.9572 deg

SMA: 7151.467 km

Apoapsis: 825.09 km

Periapsis: 721.573 km

RAAN: 45.6645 deg

Eccentricy: 0.0072375

Argument of periapsis: 22.1698 deg

Mean anomaly: 338.2589 deg

Mean motion: 14.3552276 rev/day

Mean motion (dot): 0.00008219 rev/day2

B* drag term: 0.002785 1/REarth

Two-line elements (TLE)

Creation date: Dec. 11, 2025, 7:56 a.m.

Reference frame: TEME

Reference center: EARTH

Epoch: Dec. 10, 2025, 11:12 p.m. UTC

TLE line 0: 0 DMSP 5D-2 F11 DEB

TLE line 1: 1 29071U 91082BS 25344.96710166 .00008219 00000-0 27850-2 0 9997

TLE line 2: 2 29071 98.9572 45.6645 0072375 22.1698 338.2589 14.35522760104630

Live tracking on map

Real-time ground track for satellite DMSP 5D-2 F11 DEB.

In-orbit conjunctions

A list of the most updated potential collisions computed for object DMSP 5D-2 F11 DEB.

Target Orbit TCA Probability of collision Miss distance Type
SL-8 R/B LEO 2025-07-18 16:43:47 0.0001344294 234.0 (m) ROCKET BODY
SL-3 R/B LEO 2025-05-18 21:01:46 0.0001621046 461.0 (m) ROCKET BODY
FALCONSAT SSO 2024-10-21 13:54:50 0.0001627694 16.0 (m) PAYLOAD

Associated space launch

Military meteorological satellite

DMSP 5D-2 F11 DEB was lifted into orbit during the mission ‘Atlas E | DMSP-5D2 F11’, on board a Atlas E space rocket.

The launch took place on Nov. 28, 1991, 1:23 p.m. from Space Launch Complex 3W.

For more information about the launch, click the button.

Launch to space Atlas E | DMSP-5D2 F11
Atlas E | DMSP-5D2 F11

Agency: N/A

Status: Launch Successful

Launch date: Nov. 28, 1991, 1:23 p.m. UTC

Rocket: Atlas E

Launch pad: Space Launch Complex 3W

Location: Vandenberg SFB, CA, USA

...

Latest news about this satellite

There are no fresh news available about this satellite. Check back as we update our databases every day.


Newsletter sign-up

Weekly statistics, charts and insights to help you stay on top of the space industry.